Weather in Ushakovka

Russia / Astrakhan Oblast     48°25′41″N   45°06′52″E
temp.,
°C
wind,
m/s
gust,
m/s
humid.,
%
clouds,
%
prec.,
mm/h
press.,
hPa
HPBL,
m
1 march, mon
mon101:00−1n2479100 0.0 1019458
04:00−2nne238897 0.0 1020246
07:00−2ne228899 0.0 1021183
10:00−2ne3375100 0.0 1023412
13:000n336236 0.0 1024675
16:00+1n335835 0.0 1025820
19:00−2ne236925 0.0 102654
22:00−2e116913 0.0 102721
2 march, tue
tue201:00−2ssw11690 0.0 102721
04:00−2wsw34710 0.0 1026142
07:00−2wsw48770 0.0 1025312
10:00−1w696938 0.0 1024795
13:00+3w8116092 0.0 10211106
16:00+3wsw9136696 0.0 10181254
19:00+2wsw61473100 0.0 1016741
22:00+1wsw71586100 0.1 1014776
3 march, wed
wed301:00+1w91497100 0.2 1012748
04:00+1w71394100 0.4 1010671
07:00+1wnw5998100 1.1 1009418
10:000nnw5897100 2.3 1010488
13:00+3nw797197 0.2 10111105
16:00+2nw8106597 0.3 10131444
19:000nw6117598 0.3 1015632
22:00−2nw4117365 0.3 1019778
4 march, thu
thu401:00−2nw410740 0.0 1020742
04:00−2w510750 0.0 1021428
07:00−1w510770 0.0 1021391
10:00+1w710690 0.0 1022849
13:00+4w7105934 0.0 10211192
16:00+5wsw8115822 0.0 10191169
19:00+2sw612710 0.0 1018288
22:00+1sw613790 0.0 1018371
5 march, fri
fri501:00+1sw714830 0.0 1017419
04:00+1sw715800 0.0 1017459
07:00+1sw7148348 0.0 1016474
10:00+3sw8127262 0.0 1016660
13:00+7wsw811620 0.0 1016967
16:00+8wsw812550 0.0 10151143
19:00+5wsw510675 0.0 1015273
22:00+4ssw497823 0.0 1016198